If you wish to contribute or participate in the discussions about articles you are invited to join SKYbrary as a registered user

 Actions

Formosa International Airport

From SKYbrary Wiki

SARF
Airport
ICAO: SARF – IATA: FMA
Summary
Name Formosa International Airport
Region South America and Caribbean
Territory Argentina AR.gif
Location Formosa, Formosa
Serving Formosa
Elevation 58.826 m
193 ft
193 ft58.826 m
Type medium airport
Coordinates 26° 12' 45.80" S, 58° 13' 41.20" W
Runways
Designator Length Width Surface ROPS
4/22 1800 m5,905.512 ft
40 m131.234 ft
ASP /


METAR
Observation SARF 251200Z 05005KT 9999 SCT025 BKN030 OVC040 26/24 Q1008 RERA
Station Formosa Aerodrome
Date/Time 25 February 2020 12:00:00
Wind direction 50°
Wind speed 05 kts
Lowest cloud amount scattered clouds
Temperature 26°C
Dew point 24°C
Humidity 88%
QNH 1008 hPa
Weather condition n/a

Airport 5nm 9,260 m
9.26 km
30,380.577 ft
south of the city of Formosa, Argentina.

Climatology

Humid Subtropical climate (Köppen climate classification Cfa).

Maps

Terrain

Loading map...

Airport Layout

Loading map...


Accidents & Serious Incidents at or in vicinity of SARF

None on SKYbrary